Location: Holyhead Bay
(53.3667°N, 4.6667°W)
Time: 00:50:21
(UTC+00:00)

ADEOS Rocket - Pass Details

Date: 18 April 2021
Orbit: 859 x 1306 km, 98.7° (Epoch: 15 May)

Event Time Altitude Azimuth Distance (km) Brightness Sun altitude
Rises 01:17:50 0° 123° (ESE) 3,764 5.9 -24.5°
Reaches altitude 10° 01:20:28 10° 114° (ESE) 2,880 5.4 -24.4°
Maximum altitude 01:26:10 33° 54° (NE) 1,820 4.8 -24.2°
Drops below altitude 10° 01:32:23 10° 354° (N) 3,162 6.5 -23.9°
Sets 01:35:25 0° 346° (NNW) 4,186 7.2 -23.7°
